[[{"header":{"parameterUnit":"m.s-1","parameterCategory":1,"la1":30.2991,"la2":30.254,"lo1":-89.0895,"lo2":-89.0444,"dy":0.0017,"dx":0.0017,"nx":28,"ny":28,"refTime":"2023-04-28T21:00:00:Z","depth":0,"parameterNumber":2,"parameterNumberName":"U-component_of_WINDS"},"data":[0,0,0,0,0,0,0,0,0,0,0,0,0,0,0,0,0,0,0,0,0,0,0,0,0,0,0,0,0,0,0,0,0,0,0,0,0,0,0,0,0,0,0,0,0,0,0,0,0,0,0,0,0,0,0,0,0,0,-1.7576,-1.7577,0,-1.7723,-1.7725,-1.7726,-1.7711,-1.7708,-1.7706,-1.7704,-1.7857,-1.7863,-1.7869,0,0,0,0,0,0,0,0,0,0,0,0,0,-1.7284,-1.7289,-1.7575,-1.7577,-1.7579,-1.7723,-1.7725,-1.7727,-1.7711,-1.7708,-1.7705,-1.7703,-1.7855,-1.7862,-1.7869,0,0,0,0,0,0,0,0,0,0,0,0,0,-1.7419,-1.7291,-1.7575,-1.7589,-1.7591,-1.7722,-1.7725,-1.7727,-1.7712,-1.7708,-1.7705,-1.7701,-1.7852,-1.7861,-1.787,-1.7998,0,0,-1.7899,-1.7903,0,0,0,0,0,0,0,0,-1.7411,-1.743,-1.7585,-1.7588,-1.7591,-1.7695,-1.7678,-1.7818,-1.7712,-1.7666,-1.7704,-1.77,-1.7806,-1.7819,-1.7854,-1.8005,-1.8012,-1.79,-1.7906,-1.791,-1.7912,0,0,0,0,0,0,0,-1.7402,-1.7423,-1.7634,-1.7587,-1.7591,-1.7588,-1.7604,-1.7704,-1.7754,-1.767,-1.7669,-1.7687,-1.7807,-1.7845,-1.7857,-1.8014,-1.79,-1.7908,-1.7914,-1.7917,-1.8279,-1.8283,0,0,0,0,0,0,-1.7389,-1.7415,-1.7629,-1.7638,-1.7491,-1.7596,-1.7614,-1.7665,-1.7753,-1.7762,-1.7689,-1.7685,-1.7831,-1.7847,-1.7863,-1.8019,-1.7909,-1.7918,-1.7924,-1.8276,-1.828,-1.8285,0,0,0,0,0,0,-1.7383,-1.7408,-1.7623,-1.7527,-1.7554,-1.7605,-1.7663,-1.767,-1.7708,-1.7767,-1.7776,-1.7719,-1.7829,-1.785,-1.7965,-1.8024,-1.7922,-1.7931,-1.8271,-1.8277,-1.8283,-1.8332,0,0,0,0,0,0,-1.7374,-1.7406,-1.7454,-1.7528,-1.7559,-1.7722,-1.7667,-1.7675,-1.7724,-1.772,-1.7798,-1.7807,-1.7827,-1.7951,-1.7974,-1.8035,-1.7938,-1.8266,-1.8274,-1.8281,-1.8325,-1.8339,-1.835,0,0,0,0,0,-1.7364,-1.7462,-1.7456,-1.7482,-1.762,-1.7725,-1.7743,-1.7764,-1.7729,-1.7778,-1.7817,-1.7805,-1.8014,-1.7963,-1.7989,-1.8054,-1.8262,-1.8271,-1.828,-1.8319,-1.8336,-1.835,0,0,0,0,0,0,-1.7394,-1.7472,-1.7467,-1.7591,-1.7652,-1.7722,-1.7785,-1.7781,-1.7853,-1.7846,-1.787,-1.7887,-1.8004,-1.804,-1.7982,-1.8183,-1.8133,-1.8148,-1.8154,-1.8171,-1.8183,-1.8172,-1.7946,0,0,0,0,0,-1.7415,-1.7493,-1.7557,-1.7661,-1.7692,-1.7733,-1.778,-1.7791,-1.7855,-1.788,-1.7927,-1.799,-1.807,-1.8123,-1.82,-1.8331,-1.8348,-1.8388,-1.8401,-1.8411,-1.8423,-1.8497,-1.8516,-1.8314,-1.8314,-1.8314,0,0,-1.7459,-1.7511,-1.7559,-1.7668,-1.7716,-1.7798,-1.7755,-1.7842,-1.7903,-1.7894,-1.8005,-1.8042,-1.8115,-1.8239,-1.8296,-1.8273,-1.8483,-1.8422,-1.843,-1.8437,-1.8508,-1.8527,-1.8544,-1.832,-1.8319,-1.8318,0,0,-1.7581,-1.7628,-1.772,-1.777,-1.7843,-1.7871,-1.7893,-1.7965,-1.7989,-1.8102,-1.8097,-1.8171,-1.8308,-1.836,-1.8404,-1.8549,-1.8541,-1.8574,-1.864,-1.8711,-1.8727,-1.8741,-1.8794,-1.8813,-1.8586,-1.8586,-1.8586,0,-1.7626,-1.7748,-1.7768,-1.7857,-1.7906,-1.7902,-1.7996,-1.8043,-1.8139,-1.8173,-1.8146,-1.8319,-1.8368,-1.8505,-1.854,-1.8576,-1.8603,-1.8564,-1.8723,-1.8738,-1.8751,-1.8802,-1.8821,-1.8589,-1.8589,-1.8589,-1.8588,0,-1.7801,-1.7886,-1.7952,-1.8044,-1.81,-1.8192,-1.8227,-1.8282,-1.8289,-1.832,-1.8436,-1.8494,-1.8583,-1.8617,-1.8624,-1.8756,-1.8739,-1.8718,-1.8668,-1.8774,-1.8822,-1.8841,-1.8594,-1.8593,-1.8592,-1.8591,0,0,-1.7944,-1.8048,-1.8071,-1.8114,-1.8196,-1.8263,-1.8355,-1.8442,-1.849,-1.8556,-1.8635,-1.8752,-1.8733,-1.8784,-1.8797,-1.886,-1.8973,-1.8831,-1.8833,-1.8856,-1.9124,-1.9139,-1.9161,-1.8969,-1.8972,-1.8975,-1.9118,0,-1.8074,-1.8236,-1.8258,-1.8402,-1.8482,-1.848,-1.8561,-1.8621,-1.8653,-1.8726,-1.8761,-1.8845,-1.8813,-1.8843,-1.8906,-1.8946,-1.9027,-1.8936,-1.9043,-1.9047,-1.9025,-1.9186,-1.9203,-1.9334,-1.9136,-1.914,-1.9142,0,-1.8247,-1.8319,-1.8471,-1.8544,-1.8578,-1.865,-1.8733,-1.8803,-1.8871,-1.8891,-1.8948,-1.8955,-1.9052,-1.8999,-1.9134,-1.9072,-1.9118,-1.9144,-1.915,-1.9161,-1.91,-1.9202,-1.9376,-1.9396,-1.9171,-1.9169,-1.9167,0,-1.8337,-1.8472,-1.858,-1.8617,-1.8705,-1.8756,-1.8795,-1.886,-1.8912,-1.8985,-1.9019,-1.9103,-1.9149,-1.9214,-1.9244,-1.9202,-1.9378,-1.9327,-1.9397,-1.9396,-1.9433,-1.9431,-1.9618,-1.9463,-1.9462,-1.9462,-1.9462,0,-1.848,-1.8573,-1.8622,-1.8689,-1.8794,-1.882,-1.8924,-1.8961,-1.902,-1.9095,-1.9099,-1.917,-1.9205,-1.9281,-1.9305,-1.9414,-1.9435,-1.9454,-1.9459,-1.9454,-1.9451,-1.9483,-1.9475,-1.9467,-1.9466,-1.9465,-1.9464,0,-1.8597,-1.8634,-1.8752,-1.8826,-1.8848,-1.8922,-1.8986,-1.9052,-1.9084,-1.9179,-1.9203,-1.9254,-1.9345,-1.9381,-1.9492,-1.9508,-1.9634,-1.9632,-1.9611,-1.9612,-1.968,-1.9674,-1.9895,-1.9926,-1.975,-1.9752,-1.9753,0,-1.8686,-1.8758,-1.884,-1.8891,-1.8932,-1.9013,-1.9066,-1.9095,-1.9151,-1.9236,-1.9292,-1.9383,-1.9456,-1.9602,-1.9649,-1.9735,-1.9735,-1.9807,-1.9748,-1.9741,-1.9737,-1.9732,-1.974,-1.9818,-1.9819,-1.9821,-1.9822,0,-1.8839,-1.8855,-1.8931,-1.9014,-1.9078,-1.9145,-1.9211,-1.9252,-1.9292,-1.9354,-1.9447,-1.9504,-1.9618,-1.9709,-1.9797,-1.9839,-1.9838,-1.9841,-1.9861,-1.9856,-1.9841,-1.9851,-1.964,-1.9835,-1.9834,-1.9833,-1.9832,-1.9832,-1.8945,-1.901,-1.9078,-1.9164,-1.9217,-1.9278,-1.9344,-1.9385,-1.9463,-1.9558,-1.9571,-1.9671,-1.974,-1.9859,-1.9905,-1.9984,-1.9966,-1.9996,-2.0003,-2.001,-2.0015,-1.9829,-2.0001,-2.0,-2.0,-2.0,-1.9999,0,-1.9099,-1.9144,-1.9223,-1.9315,-1.9383,-1.9376,-1.9449,-1.9506,-1.9594,-1.9659,-1.9732,-1.984,-1.9928,-1.9983,-2.0073,-2.0126,-2.0128,-2.0149,-2.0145,-2.0155,-2.0026,-1.9999,-2.0146,-2.0146,-2.0145,-2.0145,-2.0145,-2.0145,-1.9187,-1.9296,-1.932,-1.9456,-1.9501,-1.9598,-1.9641,-1.9698,-1.9751,-1.9871,-1.9944,-1.998,-2.0042,-2.0136,-2.0218,-2.0232,-2.0265,-2.0287,-2.03,-2.0179,-2.0163,-2.0149,-2.0124,-2.0294,-2.0294,-2.0422,-2.0423,-2.0424]},{"header":{"parameterUnit":"m.s-1","parameterCategory":1,"la1":30.2991,"la2":30.254,"lo1":-89.0895,"lo2":-89.0444,"dy":0.0017,"dx":0.0017,"nx":28,"ny":28,"refTime":"2023-04-28T21:00:00:Z","depth":0,"parameterNumber":3,"parameterNumberName":"V-component_of_WINDS"},"data":[0,0,0,0,0,0,0,0,0,0,0,0,0,0,0,0,0,0,0,0,0,0,0,0,0,0,0,0,0,0,0,0,0,0,0,0,0,0,0,0,0,0,0,0,0,0,0,0,0,0,0,0,0,0,0,0,0,0,-2.0214,-2.0214,0,-2.0219,-2.0219,-2.0219,-2.0144,-2.0142,-2.014,-2.0138,-2.0144,-2.0146,-2.0148,0,0,0,0,0,0,0,0,0,0,0,0,0,-2.0138,-2.014,-2.0214,-2.0214,-2.0214,-2.0219,-2.0219,-2.0219,-2.0144,-2.0142,-2.0139,-2.0137,-2.0143,-2.0146,-2.0148,0,0,0,0,0,0,0,0,0,0,0,0,0,-2.016,-2.014,-2.0214,-2.0177,-2.0174,-2.0219,-2.0219,-2.0219,-2.0145,-2.0142,-2.0139,-2.0136,-2.0142,-2.0145,-2.0148,-2.0229,0,0,-2.0158,-2.0159,0,0,0,0,0,0,0,0,-2.0159,-2.0163,-2.0182,-2.018,-2.0176,-2.0178,-2.0194,-2.0223,-2.0146,-2.0156,-2.0138,-2.0134,-2.0158,-2.0159,-2.0167,-2.0229,-2.0229,-2.0158,-2.016,-2.0161,-2.0162,0,0,0,0,0,0,0,-2.0157,-2.0162,-2.0216,-2.0183,-2.0179,-2.016,-2.016,-2.0199,-2.0174,-2.0155,-2.0149,-2.0151,-2.0155,-2.0164,-2.0167,-2.023,-2.0158,-2.0161,-2.0163,-2.0164,-2.0358,-2.0362,0,0,0,0,0,0,-2.0161,-2.0161,-2.0216,-2.0216,-2.016,-2.0164,-2.0164,-2.018,-2.0173,-2.0169,-2.0154,-2.0147,-2.016,-2.0163,-2.0167,-2.0261,-2.0161,-2.0164,-2.0166,-2.0355,-2.0359,-2.0363,0,0,0,0,0,0,-2.016,-2.0166,-2.0215,-2.0187,-2.0192,-2.0169,-2.0188,-2.0182,-2.0191,-2.0172,-2.0167,-2.0168,-2.0158,-2.0162,-2.0214,-2.026,-2.0166,-2.0168,-2.0351,-2.0356,-2.0361,-2.0451,0,0,0,0,0,0,-2.0158,-2.0166,-2.0197,-2.0188,-2.0194,-2.0264,-2.0191,-2.0184,-2.0196,-2.0188,-2.0184,-2.018,-2.0156,-2.021,-2.0217,-2.0263,-2.0171,-2.0347,-2.0353,-2.0359,-2.0444,-2.0459,-2.0471,0,0,0,0,0,-2.0155,-2.0222,-2.0199,-2.0206,-2.0232,-2.0266,-2.0269,-2.024,-2.02,-2.0231,-2.0219,-2.0181,-2.0254,-2.0216,-2.0223,-2.0271,-2.0344,-2.0352,-2.0359,-2.0438,-2.0456,-2.0471,0,0,0,0,0,0,-2.0237,-2.0221,-2.0195,-2.0261,-2.0266,-2.0254,-2.0291,-2.0259,-2.0276,-2.0268,-2.023,-2.0229,-2.0288,-2.0284,-2.0242,-2.0349,-2.0292,-2.0301,-2.035,-2.0366,-2.038,-2.0381,-2.0173,0,0,0,0,0,-2.0263,-2.0293,-2.0276,-2.0336,-2.034,-2.0315,-2.0329,-2.0306,-2.0309,-2.0311,-2.0303,-2.0308,-2.0331,-2.0348,-2.0369,-2.0442,-2.0441,-2.0478,-2.0492,-2.0503,-2.0513,-2.0552,-2.0569,-2.0387,-2.0387,-2.0387,0,0,-2.0317,-2.0311,-2.0332,-2.0352,-2.0353,-2.0385,-2.0318,-2.0354,-2.0377,-2.0316,-2.0366,-2.0359,-2.0362,-2.0425,-2.0453,-2.0424,-2.0562,-2.0513,-2.0522,-2.0525,-2.0561,-2.0579,-2.0594,-2.0392,-2.0391,-2.039,0,0,-2.0431,-2.0429,-2.048,-2.0482,-2.0484,-2.0467,-2.0479,-2.0472,-2.0465,-2.0514,-2.0469,-2.0496,-2.0537,-2.0542,-2.0549,-2.0664,-2.063,-2.0671,-2.0744,-2.0782,-2.0797,-2.0809,-2.0852,-2.0868,-2.068,-2.0681,-2.0681,0,-2.0498,-2.0544,-2.051,-2.0549,-2.056,-2.0505,-2.0556,-2.056,-2.0569,-2.0577,-2.0544,-2.0596,-2.0594,-2.0658,-2.0686,-2.0693,-2.0706,-2.0673,-2.0797,-2.081,-2.0821,-2.0861,-2.0877,-2.0686,-2.0685,-2.0685,-2.0684,0,-2.0627,-2.0659,-2.07,-2.071,-2.0724,-2.0769,-2.0742,-2.076,-2.0735,-2.0722,-2.0772,-2.0767,-2.0786,-2.0799,-2.0775,-2.086,-2.0842,-2.0804,-2.0747,-2.0844,-2.0882,-2.0897,-2.0693,-2.0691,-2.069,-2.0689,0,0,-2.0796,-2.0785,-2.0801,-2.0805,-2.0803,-2.0827,-2.0869,-2.0888,-2.0906,-2.0913,-2.0948,-2.0984,-2.0949,-2.0957,-2.0932,-2.0966,-2.1059,-2.0924,-2.0923,-2.0951,-2.1154,-2.1185,-2.1204,-2.1035,-2.1038,-2.104,-2.1155,0,-2.0909,-2.0981,-2.0951,-2.1026,-2.1056,-2.1004,-2.1041,-2.1043,-2.1031,-2.1055,-2.1041,-2.1068,-2.1018,-2.1023,-2.1054,-2.1042,-2.11,-2.1032,-2.1069,-2.1071,-2.1073,-2.1223,-2.1256,-2.1364,-2.1169,-2.1171,-2.1173,0,-2.1051,-2.1065,-2.1143,-2.1136,-2.1147,-2.1181,-2.1196,-2.1218,-2.122,-2.1209,-2.1218,-2.1185,-2.1226,-2.1167,-2.1223,-2.1178,-2.119,-2.1187,-2.119,-2.1195,-2.113,-2.1234,-2.1398,-2.1415,-2.1195,-2.1194,-2.1192,0,-2.117,-2.1207,-2.1259,-2.1264,-2.1255,-2.128,-2.1278,-2.1276,-2.129,-2.1302,-2.131,-2.1327,-2.1337,-2.1351,-2.1324,-2.1283,-2.1385,-2.1323,-2.1378,-2.1379,-2.1404,-2.1404,-2.1575,-2.1408,-2.1408,-2.1407,-2.1407,0,-2.1301,-2.1352,-2.1312,-2.1344,-2.1399,-2.1363,-2.1418,-2.141,-2.1409,-2.1439,-2.1393,-2.1422,-2.1383,-2.1409,-2.1387,-2.1438,-2.1442,-2.1435,-2.1429,-2.1441,-2.1442,-2.1451,-2.1444,-2.1412,-2.1411,-2.141,-2.1409,0,-2.1444,-2.1419,-2.1473,-2.146,-2.1458,-2.1499,-2.1488,-2.1518,-2.1501,-2.154,-2.1547,-2.1522,-2.1549,-2.1522,-2.1548,-2.1533,-2.1602,-2.1584,-2.1602,-2.1598,-2.1656,-2.1652,-2.1841,-2.1865,-2.168,-2.1682,-2.1683,0,-2.1531,-2.1568,-2.156,-2.1576,-2.1577,-2.1604,-2.1617,-2.1582,-2.1598,-2.1602,-2.1631,-2.1654,-2.1671,-2.1717,-2.1702,-2.1721,-2.1704,-2.1769,-2.1707,-2.1718,-2.1708,-2.1708,-2.1712,-2.1783,-2.1785,-2.1787,-2.1789,0,-2.1688,-2.1674,-2.1695,-2.1712,-2.1729,-2.174,-2.1748,-2.1764,-2.1727,-2.1747,-2.1775,-2.1788,-2.1813,-2.1838,-2.1852,-2.1849,-2.1814,-2.1808,-2.1822,-2.1836,-2.1846,-2.1844,-2.164,-2.1804,-2.1803,-2.1802,-2.1801,-2.18,-2.1807,-2.1839,-2.1838,-2.1863,-2.1864,-2.1873,-2.19,-2.1887,-2.1909,-2.1928,-2.1905,-2.1939,-2.1938,-2.1954,-2.1955,-2.1982,-2.1954,-2.1974,-2.198,-2.1986,-2.1996,-2.1839,-2.1984,-2.1983,-2.1983,-2.1982,-2.1982,0,-2.1965,-2.1961,-2.1984,-2.1997,-2.2016,-2.1979,-2.1986,-2.2005,-2.2035,-2.2038,-2.2055,-2.2087,-2.2109,-2.2095,-2.2114,-2.2138,-2.2123,-2.2145,-2.2144,-2.2145,-2.2018,-2.2005,-2.2157,-2.2157,-2.2157,-2.2157,-2.2157,-2.2157,-2.2049,-2.2101,-2.2087,-2.2139,-2.2134,-2.2167,-2.2174,-2.2182,-2.2184,-2.2221,-2.224,-2.223,-2.2226,-2.2244,-2.2264,-2.2259,-2.2269,-2.2298,-2.2288,-2.217,-2.2153,-2.2137,-2.2125,-2.23,-2.23,-2.2413,-2.2414,-2.2415]}]]